Wainwright, AK

4:45 AM AKDT on October 17, 2017 (GMT -0800)
Wainwright

Weather History for PAWI - December, 2012

Change the Weather History Date:

Friday, December 14, 2012

  Actual Average (PABR) Record (PABR)
Temperature  
Mean Temperature -20 °F -  
Max Temperature -16 °F -6 °F 30 °F (2008)
Min Temperature -23 °F -17 °F -42 °F (1924)
Degree Days  
Heating Degree Days 84    
Moisture  
Dew Point -25 °F    
Average Humidity 73    
Maximum Humidity 78    
Minimum Humidity 70    
Precipitation  
Precipitation 0.00 in - - ()
Sea Level Pressure  
Sea Level Pressure 29.62 in    
Wind  
Wind Speed 7 mph (SSE)    
Max Wind Speed 13 mph    
Max Gust Speed -    
Visibility 9 miles    
Events Rain    
Averages and records for this station are not official NWS values.
T = Trace of Precipitation, MM = Missing Value Source: NWS Daily Summary

Daily Weather History Graph

Daily Weather History Graph

Search for Another Location

Airport or City:

Trip Planner

Search our weather history database for the weather conditions in past years. The results will help you decide how hot, cold, wet, or windy it might be!

Date:

Astronomy

Dec. 31, 1969 Rise Set
Actual Time Sun does not rise Sun does not rise
Civil Twilight 11:41 AM AKST 3:28 PM AKST
Nautical Twilight 9:45 AM AKST 5:24 PM AKST
Astronomical Twilight 8:23 AM AKST 6:46 PM AKST
Moon 2:10 PM AKST (12/14) 4:28 PM AKST (12/14)
Length of Visible Light 3h 46m
Length of Day
0h 00m
Waxing Crescent, 3% of the Moon is Illuminated
Dec 14
Waxing Crescent
Dec 19
First Quarter
Dec 28
Full
Jan 4
Last Quarter
Jan 11
New

Hourly Weather History & Observations

Time (AKST) Temp. Windchill Dew Point Humidity Pressure Visibility Wind Dir Wind Speed Gust Speed Precip Events Conditions
12:53 AM -18.0 °F -40.7 °F -25.1 °F 70% 29.56 in 10.0 mi SW 12.7 mph - N/A   Overcast
1:53 AM -16.1 °F -37.2 °F -23.1 °F 71% 29.56 in 10.0 mi SW 11.5 mph - N/A   Overcast
3:53 AM -17.0 °F -36.1 °F -23.1 °F 74% 29.57 in 10.0 mi SW 9.2 mph - N/A   Scattered Clouds
4:53 AM -18.0 °F -36.1 °F -24.0 °F 74% 29.58 in 10.0 mi SW 8.1 mph - N/A   Clear
5:53 AM -18.0 °F -34.7 °F -24.0 °F 74% 29.59 in 10.0 mi SW 6.9 mph - N/A   Scattered Clouds
6:53 AM -18.0 °F -33.0 °F -25.1 °F 70% 29.59 in 9.0 mi SW 5.8 mph - N/A   Clear
7:53 AM -18.0 °F - -24.0 °F 74% 29.59 in 10.0 mi Calm Calm - N/A   Mostly Cloudy
8:18 AM -18.4 °F - -23.8 °F 76% 29.59 in 9.0 mi Calm Calm - 0.00 in Rain Light Freezing Rain
8:53 AM -17.0 °F - -23.1 °F 74% 29.60 in 10.0 mi Calm Calm - 0.00 in Rain Light Freezing Rain
9:24 AM -16.6 °F - -22.0 °F 76% 29.60 in 10.0 mi Calm Calm - 0.00 in   Overcast
9:33 AM -16.6 °F - -22.0 °F 76% 29.60 in 4.0 mi Calm Calm - 0.00 in   Haze
9:53 AM -16.1 °F -26.2 °F -22.0 °F 74% 29.61 in 6.0 mi SSW 3.5 mph - 0.00 in   Haze
10:15 AM -16.6 °F -29.3 °F -23.8 °F 70% 29.61 in 9.0 mi SSE 4.6 mph - 0.00 in   Overcast
10:53 AM -18.0 °F -30.9 °F -24.0 °F 74% 29.61 in 10.0 mi SSE 4.6 mph - 0.00 in   Partly Cloudy
11:53 AM -18.9 °F -32.0 °F -26.0 °F 70% 29.62 in 10.0 mi SE 4.6 mph - N/A   Scattered Clouds
12:53 PM -18.9 °F -34.0 °F -25.1 °F 74% 29.62 in 10.0 mi South 5.8 mph - N/A   Mostly Cloudy
1:11 PM -18.4 °F -33.4 °F -25.6 °F 70% 29.62 in 7.0 mi South 5.8 mph - N/A   Mostly Cloudy
1:53 PM -18.9 °F -32.0 °F -26.0 °F 70% 29.62 in 9.0 mi South 4.6 mph - N/A   Clear
2:53 PM -20.0 °F -30.7 °F -25.1 °F 78% 29.62 in 9.0 mi SSE 3.5 mph - N/A   Clear
3:53 PM -18.9 °F -29.5 °F -26.0 °F 70% 29.63 in 10.0 mi SSE 3.5 mph - N/A   Clear
4:53 PM -20.0 °F -35.3 °F -26.0 °F 74% 29.64 in 10.0 mi SE 5.8 mph - N/A   Clear
5:53 PM -20.9 °F -36.4 °F -27.0 °F 73% 29.64 in 9.0 mi SE 5.8 mph - N/A   Clear
6:53 PM -22.0 °F -39.4 °F -27.9 °F 74% 29.65 in 10.0 mi SE 6.9 mph - N/A   Clear
7:53 PM -20.9 °F -36.4 °F -27.0 °F 73% 29.65 in 10.0 mi SE 5.8 mph - N/A   Mostly Cloudy
8:53 PM -20.9 °F -38.1 °F -27.9 °F 70% 29.65 in 10.0 mi SE 6.9 mph - N/A   Clear
9:53 PM -20.9 °F -41.0 °F -27.0 °F 73% 29.65 in 10.0 mi SSE 9.2 mph - N/A   Partly Cloudy
10:53 PM -22.0 °F -42.3 °F -27.9 °F 74% 29.65 in 7.0 mi SE 9.2 mph - N/A   Mostly Cloudy
10:58 PM -22.0 °F -42.3 °F -27.4 °F 76% 29.64 in 6.0 mi SE 9.2 mph - N/A   Haze
11:09 PM -22.0 °F -39.4 °F -27.4 °F 76% 29.64 in 5.0 mi SSE 6.9 mph - N/A   Haze
11:23 PM -22.0 °F -41.0 °F -27.4 °F 76% 29.64 in 5.0 mi SE 8.1 mph - N/A   Haze
11:41 PM -23.8 °F -43.2 °F -29.2 °F 76% 29.64 in 9.0 mi SE 8.1 mph - N/A   Mostly Cloudy
11:53 PM -22.0 °F -41.0 °F -29.0 °F 70% 29.65 in 6.0 mi SE 8.1 mph - N/A   Haze